View from above orbital plane
|
View from above satellite
|
Ground track
|
The orbit data is extracted from the following two-line orbital elements,
1 17974U 87041B 21019.79702115 .00000163 00000-0 10423-3 0 9996
2 17974 71.0084 24.2316 0014623 198.4119 334.2765 14.17271820742430
Epoch (UTC): | 19 January 2021 19:07:42 |
Eccentricity: | 0.0014623 |
inclination: | 71.0084° |
perigee height: | 824 km |
apogee height: | 845 km |
right ascension of ascending node: | 24.2316° |
argument of perigee: | 198.4119° |
revolutions per day: | 14.17271820 |
mean anomaly at epoch: | 334.2765° |
orbit number at epoch: | 74243 |
The dashed part of the orbit path shows where the satellite is in the earth's shadow,
|
|